EHI
0 0 0 0 0 0 0 0 0 0 0 0 0 0 0 0 0 0 1 2 2 1 0 0 0 0 0 0 0 2 2 1 0 0 0 0 0 0 0 0 0 0 0
0 0 0 0 0 0 0 0 0 0 0 0 0 0 0 0 0 0 0 1 1 0 0 0 0 0 0 0 0 1 1 0 0 0 0 0 0 0 0 0 0 0 0
0 0 0 0 0 0 0 0 0 0 0 0 0 0 0 0 0 0 0 0 0 0 0 0 0 0 0 0 0 0 0 0 0 0 0 0 0 0 0 0 0 0 0
0 0 0 0 0 0 0 0 0 0 0 0 0 0 0 0 0 0 0 0 0 0 0 0 0 0 0 0 0 0 0 0 0 0 0 0 0 0 0 0 0 0 0
0 0 0 0 0 0 0 0 0 0 0 0 0 0 0 0 0 0 0 0 0 0 0 0 0 0 0 0 0 0 0 0 0 0 0 0 0 0 0 1 1 1 0
0 0 0 0 0 0 0 0 0 0 0 0 0 0 0 0 0 0 0 0 0 0 0 0 0 0 0 0 0 0 0 0 0 0 0 0 0 0 1 2 2 2 1
0 0 0 0 0 0 0 0 0 0 0 0 0 0 0 0 0 0 0 0 0 0 0 0 0 0 0 0 0 0 0 0 0 0 0 0 0 0 1 3 3 2 1
0 0 0 0 0 0 0 0 0 0 0 0 0 0 0 0 0 0 0 0 0 0 0 0 0 0 0 0 0 0 0 0 1 0 0 0 0 1 2 3 3 1 0
0 0 0 0 0 0 0 0 0 0 0 0 0 0 0 0 0 0 0 0 0 0 0 0 0 0 0 0 0 0 0 0 0 0 0 0 0 1 2 2 2 1 0
0 0 0 0 0 0 0 0 0 0 0 0 0 0 0 0 0 0 0 0 0 0 0 0 0 0 0 0 0 0 0 0 0 0 0 0 0 1 1 1 1 0 0
0 0 0 0 0 0 0 0 0 0 0 0 0 0 0 0 0 0 0 0 0 0 0 0 0 0 0 0 0 0 0 0 0 0 0 0 0 0 0 0 0 0 0
0 0 0 0 0 0 0 0 0 0 0 0 0 0 0 0 0 0 0 0 0 0 0 0 0 0 0 0 0 0 0 0 0 0 0 0 0 0 0 0 0 0 0
0 0 0 0 0 0 0 0 0 0 0 0 0 0 0 0 0 0 0 0 0 0 0 0 0 0 0 0 0 0 0 0 0 0 0 0 0 0 0 0 0 0 0
0 0 0 0 0 0 1 0 0 0 0 0 0 0 0 0 0 0 0 0 0 0 0 0 0 0 0 0 0 0 0 0 0 0 0 0 0 0 0 0 0 0 0
0 0 0 0 0 0 0 0 0 0 0 0 0 0 0 0 0 0 0 0 0 0 0 0 0 0 0 0 0 0 0 0 0 0 0 0 0 0 0 0 0 0 0
0 0 0 0 0 0 0 0 0 0 0 0 0 0 0 0 0 0 0 0 0 0 0 0 0 0 0 0 0 0 0 0 0 0 0 0 0 0 0 0 0 0 0
0 0 0 0 0 0 0 0 0 0 0 0 0 0 0 0 0 0 0 0 0 0 0 0 0 0 0 0 0 0 0 0 0 0 0 0 0 0 0 0 0 0 0
0 0 0 0 0 0 0 0 0 0 0 0 0 0 0 0 0 0 0 0 0 0 0 0 0 0 0 0 0 0 0 0 0 0 0 0 0 0 0 0 0 0 0
0 0 0 0 0 0 0 0 0 0 0 0 0 0 0 0 0 0 0 0 0 0 0 0 0 0 0 0 0 0 0 0 0 0 0 0 0 0 0 0 0 0 0
0 0 0 0 0 0 0 0 0 0 0 0 0 0 0 0 0 0 0 0 0 0 0 0 0 0 0 0 0 0 0 0 0 0 0 0 0 0 0 0 0 0 0
0 0 0 0 0 0 0 0 0 0 0 0 0 0 0 0 0 0 0 0 0 0 0 0 0 0 0 0 0 0 0 0 0 0 0 0 0 0 0 0 0 0 0
0 0 0 0 0 0 0 0 0 0 0 0 0 0 0 0 0 0 0 0 0 0 0 0 0 0 0 0 0 0 0 0 0 0 0 0 0 0 0 0 0 0 0
0 0 0 0 0 0 0 0 0 0 0 0 0 0 0 0 0 0 0 0 0 0 0 0 0 0 0 0 0 0 0 0 0 0 0 0 0 0 0 0 0 0 0
0 0 0 0 0 0 0 0 0 0 0 0 0 0 0 0 0 0 0 0 0 0 0 0 0 0 0 0 0 0 0 0 0 0 0 0 0 0 0 0 0 0 0
0 0 0 0 0 0 0 0 0 0 0 0 0 0 0 0 0 0 0 0 0 0 0 0 0 0 0 0 0 0 0 0 0 0 0 0 0 0 0 0 0 0 0
0 0 0 0 0 0 0 0 0 0 0 0 0 0 0 0 0 0 0 0 0 0 0 0 0 0 0 0 0 0 0 0 0 0 0 0 0 0 0 0 0 0 0
Wind_Speed
2 2 2 2 2 2 3 3 3 4 4 4 4 5 5 5 4 4 3 8 9 10 9 9 10 11 11 12 12 12 12 12 12 12 12 11 11 11 11 11 11 10 10
3 3 3 2 2 2 3 3 4 4 4 4 5 5 4 4 4 4 4 6 10 10 10 10 10 11 12 12 12 12 12 12 12 12 13 13 13 12 12 12 12 11 11
3 4 3 3 2 3 4 4 4 4 5 5 5 5 4 4 4 4 4 4 4 9 11 11 11 11 12 12 12 12 12 13 13 13 13 13 13 13 13 12 12 12 11
4 4 3 3 3 3 3 4 4 4 4 4 4 3 3 3 3 4 4 4 3 4 7 12 12 12 12 12 12 12 12 13 13 13 13 13 13 12 12 12 13 12 12
4 4 4 3 4 4 3 4 3 4 4 4 4 3 3 3 3 4 4 4 4 4 4 8 11 11 11 12 11 12 12 12 12 12 12 12 12 12 12 12 12 12 12
4 4 4 4 4 4 4 4 4 3 3 3 5 5 3 3 3 3 3 3 3 4 4 5 5 6 10 11 11 11 12 12 12 12 12 12 12 12 12 12 13 13 13
4 4 4 4 4 4 4 5 4 4 3 3 4 4 4 4 4 3 2 3 3 3 4 4 4 3 4 9 10 11 11 11 11 11 11 11 11 11 12 12 13 13 13
4 5 5 4 4 4 5 5 4 3 2 2 3 3 2 4 4 3 2 2 3 2 3 4 4 4 3 3 5 9 10 10 11 11 11 11 11 11 12 12 13 13 13
3 4 5 4 5 5 5 5 5 4 3 1 1 4 3 2 0 3 3 3 2 3 2 3 4 3 3 3 3 6 9 9 10 10 10 10 11 11 12 12 13 13 13
3 3 4 5 5 4 5 5 4 3 4 2 0 1 2 4 3 1 2 2 3 3 2 3 3 3 3 2 4 7 9 9 10 10 10 10 10 11 11 12 12 13 13
1 3 4 4 4 4 4 4 4 3 3 3 2 2 2 2 2 3 2 1 2 2 2 2 2 2 2 2 2 5 8 8 9 10 10 10 11 11 11 11 12 12 13
1 2 3 4 4 4 4 4 4 4 3 3 2 2 3 3 3 3 3 2 1 1 2 2 2 1 1 2 3 7 7 7 8 9 9 10 11 11 11 11 11 11 12
1 3 3 3 3 4 4 4 3 3 3 3 3 3 2 3 3 4 4 3 2 0 1 1 1 1 1 1 2 5 6 7 7 8 9 9 10 10 10 11 11 11 11
2 3 3 3 3 4 4 4 3 3 3 3 4 3 3 3 3 4 4 5 3 1 1 0 1 0 1 1 2 3 3 6 7 7 8 8 9 9 9 9 10 10 10
2 2 3 3 3 3 4 4 3 3 3 3 3 3 2 2 3 3 4 4 5 3 2 2 1 0 1 1 2 2 2 5 6 6 7 7 8 8 8 8 8 9 10
2 2 2 3 3 3 4 4 3 3 4 3 3 3 3 2 3 3 3 3 3 4 3 2 2 2 2 3 3 2 2 5 6 6 6 7 7 7 7 8 8 8 9
3 3 3 3 3 4 4 4 4 4 4 4 3 4 4 3 3 3 3 3 3 3 4 1 1 1 2 2 2 2 2 2 2 5 5 6 7 7 7 7 8 8 9
3 3 3 3 4 3 4 5 5 5 5 5 5 4 4 4 4 3 3 4 3 3 4 4 2 2 2 3 2 2 2 2 1 4 5 5 5 6 6 7 7 8 8
3 2 3 3 4 3 4 4 4 5 5 5 5 5 5 5 5 3 4 4 3 4 3 5 3 1 1 2 2 1 2 1 1 2 3 3 4 4 5 5 5 6 6
3 3 3 3 4 3 3 3 3 4 4 5 5 5 5 7 7 6 5 5 5 4 4 5 4 2 2 2 2 2 1 0 0 1 1 2 2 3 3 3 4 4 4
3 3 3 2 3 3 3 4 3 4 4 4 3 4 5 7 8 7 6 6 6 5 5 4 4 2 2 3 3 2 2 1 1 0 0 1 1 1 1 1 1 2 3
2 2 2 3 3 3 5 6 5 4 4 4 4 4 4 5 8 9 10 11 11 9 7 5 4 5 4 4 3 3 3 2 1 1 1 0 0 1 1 1 0 1 1
3 3 3 2 3 4 6 7 7 4 4 5 5 4 4 4 5 5 7 10 10 11 12 9 7 7 6 6 6 5 4 3 3 2 2 1 1 1 2 1 2 2 1
4 4 4 3 3 4 6 7 7 4 4 4 5 5 5 5 6 6 6 5 4 5 7 6 6 6 6 6 7 6 5 3 1 1 3 2 1 2 2 1 2 2 1
4 4 4 4 4 4 6 7 7 4 3 3 4 5 6 6 9 10 8 6 5 3 4 6 6 6 7 9 8 5 4 4 2 2 2 2 2 1 1 1 2 2 1
5 4 4 4 5 4 6 7 8 4 3 3 2 4 7 8 10 12 8 8 7 5 4 4 3 4 4 6 9 7 6 5 3 2 2 3 2 2 1 1 1 1 1
Wind_Direction
130 124 110 96 95 96 94 87 84 82 82 81 85 89 83 75 63 52 46 68 77 81 84 83 83 83 79 76 73 69 67 65 62 61 59 57 54 53 52 51 50 50 52
135 129 116 105 104 108 102 99 97 93 87 86 82 82 83 80 71 65 52 56 68 72 73 77 78 79 78 75 72 69 67 64 63 61 59 57 54 53 52 51 49 48 50
130 126 121 118 119 112 105 95 89 86 90 87 80 79 79 77 79 73 64 52 53 65 71 73 74 77 78 75 72 69 66 64 61 59 58 56 54 53 53 52 51 49 48
134 125 127 127 124 112 108 106 98 89 84 84 80 72 69 71 75 75 69 61 52 55 63 70 70 72 74 73 71 70 67 65 61 60 60 57 55 53 51 52 52 51 49
134 129 133 131 124 114 111 116 101 104 102 94 89 74 61 60 69 83 76 68 64 62 59 66 65 65 70 71 71 71 68 65 63 62 61 57 56 54 53 53 53 52 49
130 128 128 126 121 114 107 110 111 98 102 104 94 74 53 48 55 71 83 75 69 72 66 60 54 55 63 68 67 70 68 66 64 62 60 58 55 54 54 53 52 51 50
128 131 133 127 127 127 133 129 116 103 92 101 87 61 36 38 46 53 63 69 69 73 68 59 54 45 46 54 60 66 66 66 65 64 63 61 58 56 55 54 55 52 50
137 142 140 140 138 130 128 129 124 114 122 122 114 99 56 19 16 30 44 73 71 66 70 69 60 55 45 31 47 59 60 62 64 65 65 62 59 57 57 57 55 53 50
147 146 147 147 150 146 149 151 146 141 156 200 146 136 138 171 1 9 25 51 65 69 65 62 66 57 54 37 27 45 57 56 60 62 64 63 60 58 58 58 56 53 50
152 148 152 152 157 154 157 168 161 154 150 169 176 96 139 148 142 111 9 19 53 70 72 80 71 60 51 43 43 53 56 53 57 59 62 64 63 61 59 58 56 54 51
162 156 158 159 164 165 169 167 158 161 158 162 163 138 103 93 114 131 138 18 32 30 60 82 81 67 53 48 40 63 61 56 58 59 59 61 61 59 58 60 59 57 55
182 177 160 166 170 171 178 174 172 170 171 163 158 152 152 149 155 138 144 146 108 21 38 51 75 75 60 49 71 76 70 63 63 62 60 60 59 56 56 58 59 59 59
205 204 176 175 177 180 180 170 168 179 176 169 170 171 169 166 149 140 134 139 127 80 46 26 22 78 89 62 61 79 76 71 67 64 63 62 62 59 55 56 56 56 58
211 201 189 184 183 179 175 164 169 186 177 177 180 172 166 173 156 152 149 142 127 89 53 230 0 34 86 90 75 72 72 81 77 72 67 63 61 60 58 57 55 54 55
213 200 191 189 192 187 179 168 178 185 172 174 175 168 162 173 160 159 150 150 145 151 189 209 186 219 128 101 96 82 73 88 84 80 75 70 64 60 58 59 58 56 53
205 192 193 197 200 194 183 173 180 183 172 178 170 161 162 163 160 154 156 149 138 143 164 196 192 178 157 133 117 96 90 99 91 86 80 77 70 64 61 61 59 58 54
203 198 199 202 204 200 187 181 193 186 182 185 179 169 176 164 160 165 157 150 142 132 139 165 133 130 127 128 106 91 80 62 76 91 90 84 79 73 68 66 64 62 59
206 204 198 197 200 196 193 192 199 192 187 188 188 176 184 171 166 167 163 164 157 148 141 147 139 132 142 151 134 130 121 108 82 92 94 90 86 80 75 72 71 66 62
206 201 191 192 196 196 194 197 196 193 191 192 189 189 190 168 173 171 166 163 157 146 132 141 146 134 122 136 112 113 109 72 115 100 93 84 82 83 84 79 77 71 65
195 193 199 203 195 192 191 186 184 186 188 191 192 193 190 182 181 173 168 165 153 138 133 137 138 135 134 138 130 130 103 12 58 88 80 80 67 59 71 82 84 81 71
203 196 192 212 210 196 196 185 182 183 186 188 190 194 193 184 179 173 168 165 155 148 145 145 148 139 154 159 178 169 155 152 343 53 71 24 30 11 357 6 78 96 88
191 185 195 201 206 214 206 190 181 179 182 186 195 199 197 185 184 181 173 167 164 162 163 160 165 176 189 183 163 160 145 143 230 240 141 259 53 287 283 293 321 141 140
189 184 202 204 210 219 205 192 186 180 186 194 194 190 194 188 175 176 173 169 173 174 169 167 173 187 185 185 167 165 174 175 194 188 139 208 257 255 257 259 222 207 198
193 196 203 206 213 221 203 191 186 181 182 187 192 192 187 183 177 168 160 159 171 184 185 178 183 189 184 178 177 176 172 151 123 171 151 183 216 245 267 273 264 229 217
199 202 199 201 207 225 208 188 177 179 183 194 199 194 184 183 179 165 159 163 171 195 194 180 172 169 167 167 158 137 139 144 184 220 182 170 197 210 272 282 276 241 230
203 197 200 207 209 218 213 196 181 177 186 202 208 200 192 186 179 170 170 169 178 190 169 163 162 168 169 171 168 167 166 161 165 208 202 169 177 149 263 290 296 277 255